Home   Weather   Flagstaff   Past weeks
Flag for USA

Past Weather in Flagstaff, Arizona, USA — Yesterday and Last 2 Weeks

Now
70 °F

Sunny.


Feels Like: 74 °F
Forecast: 79 / 45 °F
Wind: 8 mph from Southwest

Location: Flagstaff Pulliam Airport

Current Time: Jun 17, 2019 at 7:57:23 pm

Latest Report: Jun 17, 2019 at 6:57 pm


Visibility: 10 mi

Pressure: 29.88 "Hg (23.40 "Hg at 2103m altitude)

Humidity: 19%

Dew Point: 26 °F

Location of FlagstaffLocation

Past Weather in Flagstaff — Graph

°F

Flagstaff Temperature Yesterday

Maximum temperature yesterday: 78 °F (at 3:57 pm)
Minimum temperature yesterday: 44 °F (at 4:57 am)
Average temperature yesterday: 63 °F

High & Low Weather Summary for the Past Weeks

 TemperatureHumidityPressure
High82 °F (Jun 12, 2:57 pm)86% (Jun 5, 4:57 am)30.23 "Hg (Jun 5, 4:57 am)
Low36 °F (Jun 4, 4:57 am)12% (Jun 11, 5:57 pm)29.80 "Hg (Jun 16, 6:57 pm)
Average61 °F37%29.95 "Hg
* Reported Jun 2 6:57 pm — Jun 17 6:57 pm, Flagstaff. Weather by CustomWeather, © 2019

Note: Actual official high and low records may vary slightly from our data, if they occured in-between our weather recording intervals... More about our weather records

Advertising

Flagstaff Weather History for the Previous 24 Hours

Scroll right to see more
 ConditionsComfort  
Time TempWeatherWind HumidityBarometerVisibility
6:57 pm
Mon, Jun 17
70 °FSunny.8 mph19%29.88 "Hg10 mi
5:57 pm73 °FSunny.12 mph16%29.87 "Hg10 mi
4:57 pm75 °FPassing clouds.18 mph16%29.87 "Hg10 mi
3:57 pm75 °FSunny.15 mph16%29.87 "Hg10 mi
2:57 pm75 °FPassing clouds.16 mph18%29.88 "Hg10 mi
1:57 pm76 °FPassing clouds.17 mph19%29.88 "Hg10 mi
12:57 pm75 °FScattered clouds.18 mph19%29.89 "Hg10 mi
11:57 am73 °FSunny.15 mph22%29.90 "Hg10 mi
10:57 am72 °FSunny.13 mph23%29.91 "Hg10 mi
9:57 am69 °FSunny.14 mph22%29.89 "Hg10 mi
8:57 am65 °FSunny.7 mph34%29.90 "Hg10 mi
7:57 am57 °FSunny.No wind67%29.92 "Hg10 mi
6:57 am51 °FSunny.No wind74%29.90 "Hg10 mi
5:57 am44 °FSunny.No wind82%29.91 "Hg10 mi
4:57 am42 °FClear.No wind82%29.90 "Hg10 mi
3:57 am44 °FClear.No wind79%29.87 "Hg10 mi
2:57 am45 °FClear.No wind80%29.88 "Hg10 mi
1:57 am47 °FClear.No wind77%29.87 "Hg10 mi
12:57 am50 °FClear.No wind68%29.87 "Hg10 mi
11:57 pm
Sun, Jun 16
52 °FClear.No wind66%29.87 "Hg10 mi
10:57 pm56 °FClear.3 mph58%29.87 "Hg10 mi
9:57 pm61 °FPassing clouds.3 mph50%29.85 "Hg10 mi
8:57 pm63 °FOvercast.12 mph45%29.83 "Hg10 mi
7:57 pm63 °FClear.No wind41%29.82 "Hg10 mi
Weather by CustomWeather, © 2019

See weather overview